EW3784 Weather Reports


time (UTC)temp
C
wind
direction
speed
KPH
gust
KPH
rain 1hr
cm
rain 24hr
cm
rain mn
cm
humidity
%
barometer
mb
20190818063037 16 239 3.2 6.4 0.00 0.46 0.23 98 1008.7
20190818061607 15 215 1.6 9.7 0.00 0.46 0.23 98 1008.7
20190818060017 15 211 1.6 11.3 0.00 0.46 0.23 98 1008.7
20190818054552 15 239 3.2 8.0 0.00 0.46 0.23 98 1008.9
20190818053051 15 267 3.2 12.9 0.00 0.46 0.23 98 1008.8
20190818051537 15 252 3.2 11.3 0.00 0.46 0.23 98 1008.8
20190818050015 15 253 3.2 8.0 0.03 0.46 0.23 98 1008.7
20190818044509 15 259 1.6 9.7 0.03 0.46 0.23 98 1008.5
20190818043005 15 275 6.4 12.9 0.03 0.46 0.23 98 1008.4
20190818041504 15 235 1.6 17.7 0.03 0.46 0.23 98 1008.4
20190818040005 15 211 3.2 12.9 0.00 0.43 0.20 98 1008.4
20190818033156 15 149 1.6 12.9 0.03 0.43 0.20 98 1008.3
20190818033002 15 244 3.2 12.9 0.03 0.43 0.20 98 1008.3
20190818031746 15 223 1.6 9.7 0.05 0.43 0.20 98 1008.3
20190818030248 15 157 0.0 8.0 0.05 0.43 0.20 98 1008.3
20190818024741 15 155 0.0 11.3 0.05 0.43 0.20 98 1008.2
20190818023301 15 234 0.0 12.9 0.05 0.43 0.18 98 1008.4
20190818021904 15 205 1.6 6.4 0.05 0.41 0.15 98 1008.6
20190818020221 15 177 0.0 6.4 0.03 0.38 0.15 98 1008.8
20190818014631 15 164 0.0 8.0 0.05 0.38 0.15 98 1008.8
20190818013149 15 140 0.0 11.3 0.05 0.38 0.15 98 1008.9
20190818011732 15 150 0.0 9.7 0.03 0.36 0.13 98 1009.0
20190818010211 15 134 0.0 8.0 0.05 0.36 0.13 98 1009.2
20190818004633 15 137 4.8 11.3 0.05 0.33 0.10 98 1009.4
20190818003111 15 136 1.6 12.9 0.05 0.33 0.10 98 1009.6
20190818001656 15 150 3.2 11.3 0.08 0.33 0.10 98 1010.0
20190818000146 15 156 3.2 9.7 0.05 0.33 0.08 98 1010.1
20190817234615 15 246 3.2 14.5 0.05 0.30 0.05 98 1010.2
20190817233206 15 140 1.6 9.7 0.05 0.28 0.05 97 1010.3
20190817231616 15 165 1.6 9.7 0.03 0.25 0.03 97 1010.4
20190817230108 15 147 3.2 6.4 0.03 0.25 0.03 97 1010.6
20190817224656 15 261 3.2 8.0 0.03 0.25 0.03 97 1010.8
20190817223114 15 167 0.0 8.0 0.00 0.23 0.00 97 1010.5
20190817221622 15 160 0.0 4.8 0.00 0.23 0.00 97 1010.5
20190817220039 15 133 3.2 11.3 0.00 0.23 0.00 97 1010.5
20190817214610 15 180 1.6 12.9 0.00 0.23 0.23 97 1010.7
20190817213110 15 142 1.6 19.3 0.00 0.23 0.23 97 1010.8
20190817211610 15 268 4.8 16.1 0.00 0.23 0.23 96 1010.9
20190817210142 15 126 0.0 11.3 0.00 0.23 0.23 96 1011.0
20190817204541 15 228 0.0 12.9 0.00 0.23 0.23 96 1011.1
20190817203038 15 259 4.8 14.5 0.00 0.23 0.23 96 1011.4
20190817201539 15 253 4.8 14.5 0.00 0.23 0.23 96 1011.3
20190817200041 15 167 4.8 17.7 0.00 0.23 0.23 96 1011.7
20190817194523 15 143 1.6 11.3 0.00 0.23 0.23 95 1012.0
20190817193111 15 244 1.6 16.1 0.00 0.23 0.23 95 1011.7
20190817191610 15 154 3.2 11.3 0.00 0.23 0.23 95 1011.7
20190817190032 15 269 1.6 11.3 0.00 0.23 0.23 95 1011.6
20190817184527 15 243 1.6 6.4 0.00 0.23 0.23 95 1011.7
20190817183125 15 238 3.2 11.3 0.00 0.23 0.23 95 1011.8
20190817181620 15 257 4.8 12.9 0.00 0.23 0.23 94 1012.0
20190817180044 15 214 4.8 19.3 0.03 0.23 0.23 94 1011.9
20190817174632 15 267 3.2 17.7 0.03 0.23 0.23 93 1011.8
20190817173059 15 259 3.2 12.9 0.05 0.23 0.23 93 1012.0
20190817171604 15 240 6.4 16.1 0.05 0.23 0.23 92 1012.1
20190817170025 15 276 4.8 16.1 0.03 0.23 0.23 90 1011.9
20190817164531 16 265 3.2 19.3 0.03 0.23 0.23 88 1011.9
20190817163047 16 219 3.2 12.9 0.00 0.20 0.20 86 1011.9
20190817161546 16 176 3.2 16.1 0.00 0.20 0.20 85 1011.8
20190817160021 16 209 4.8 14.5 0.00 0.20 0.20 84 1011.7
20190817154525 16 264 4.8 12.9 0.00 0.20 0.20 84 1011.5
20190817153016 17 240 3.2 12.9 0.00 0.20 0.20 83 1011.4
20190817151519 16 135 6.4 17.7 0.00 0.20 0.20 84 1011.7
20190817150036 17 297 4.8 11.3 0.00 0.20 0.20 82 1011.7
20190817144514 17 237 4.8 16.1 0.00 0.20 0.20 82 1012.0
20190817143023 17 49 3.2 12.9 0.00 0.20 0.20 83 1011.7
20190817141512 17 217 3.2 14.5 0.00 0.20 0.20 82 1011.7
20190817140030 17 257 1.6 8.0 0.00 0.20 0.20 83 1011.7
20190817134517 17 222 1.6 6.4 0.00 0.20 0.20 83 1011.7
20190817133038 17 196 1.6 12.9 0.00 0.20 0.20 83 1011.7
20190817131537 18 245 3.2 11.3 0.00 0.20 0.20 82 1011.9
20190817130043 18 261 3.2 11.3 0.00 0.20 0.20 84 1011.7
20190817124508 17 215 1.6 16.1 0.00 0.20 0.20 85 1011.7
20190817123009 17 299 4.8 12.9 0.00 0.20 0.20 86 1011.7
20190817121504 17 147 3.2 17.7 0.00 0.20 0.20 87 1011.8
20190817120003 17 134 3.2 14.5 0.00 0.20 0.20 88 1011.8
20190817114644 17 155 3.2 12.9 0.00 0.20 0.20 89 1012.0
20190817113207 16 282 3.2 11.3 0.00 0.20 0.20 90 1012.3
20190817111629 16 286 3.2 14.5 0.00 0.20 0.20 91 1012.1
20190817110148 15 109 1.6 16.1 0.03 0.20 0.20 93 1011.8
20190817104711 15 297 4.8 19.3 0.05 0.20 0.20 93 1012.1
20190817103207 15 84 3.2 12.9 0.05 0.20 0.20 94 1012.1
20190817101623 15 144 3.2 11.3 0.05 0.20 0.20 94 1012.3
20190817100122 14 134 4.8 16.1 0.05 0.18 0.18 92 1012.3
20190817094655 14 261 3.2 11.3 0.03 0.15 0.15 90 1012.5
20190817093156 15 227 1.6 12.9 0.00 0.15 0.15 89 1012.6
20190817091706 15 159 3.2 14.5 0.03 0.15 0.15 89 1012.4
20190817090124 14 150 3.2 16.1 0.03 0.15 0.15 89 1012.3
20190817084631 14 150 3.2 9.7 0.05 0.15 0.15 92 1012.3
20190817083122 14 205 3.2 22.5 0.08 0.15 0.15 92 1012.3
20190817081635 13 274 1.6 11.3 0.08 0.13 0.13 93 1012.3
20190817080142 13 213 1.6 6.4 0.10 0.13 0.13 92 1012.4
20190817074609 14 146 1.6 11.3 0.08 0.10 0.10 90 1012.6
20190817073126 14 209 3.2 11.3 0.05 0.05 0.05 88 1012.7
20190817071607 14 205 1.6 8.0 0.05 0.05 0.05 88 1012.5
20190817070056 15 280 1.6 8.0 0.03 0.03 0.03 87 1012.3
20190817064559 15 223 3.2 8.0 0.03 0.03 0.03 85 1012.4